Regional Weather Roundup
Issued by NWS

Home | Current Version | Previous Version | Text Only | Print | Product List | Glossary Off
Versions: 1 2 3 4 5 6 7 8 9 10 11 12 13 14 15 16 17 18 19 20 21 22 23 24 25 26 27 28 29 30 31 32 33 34 35 36 37 38 39 40 41 42 43 44 45 46 47 48 49 50

738
ASUS44 KJAN 301103
RWRMS

MISSISSIPPI HOURLY WEATHER ROUNDUP
NATIONAL WEATHER SERVICE JACKSON MS
600 AM CDT THU OCT 30 2014

NOTE: "FAIR: INDICATES FEW OR NO CLOUDS BELOW 12,000 FEET WITH NO
SIGNIFICANT WEATHER AND/OR OBSTRUCTIONS TO VISIBILITY.

MSZ001>002-007>008-010>013-018>021-025>028-034>036-301200-
NORTHWEST MISSISSIPPI

CITY           SKY/WX    TMP DP  RH WIND       PRES   REMARKS
CLARKSDALE       N/A     46  46 100 CALM      30.16R VSB 1/2
CLEVELAND      FAIR      46  46 100 CALM      30.14R
GREENWOOD      CLEAR     43  41  93 CALM      30.14R
GREENVILLE     CLEAR     45  44  97 CALM      30.14R
GRENADA        FAIR      39  39 100 CALM      30.15R
OLIVE BRANCH   CLEAR     39  39 100 CALM      30.16R
OXFORD         FAIR      39  37  93 CALM      30.16R
TUNICA         FOG       41  41 100 CALM      30.16R VSB 1
$$

MSZ003>006-009-014>017-022>024-029>033-037>039-301200-
NORTHEAST MISSISSIPPI

CITY           SKY/WX    TMP DP  RH WIND       PRES   REMARKS
COLUMBUS AFB   CLEAR     40  40  99 CALM      30.14R
CORINTH        FAIR      37  37 100 CALM      30.14S FOG
GOLDN TRIANGLE CLEAR     45  43  93 NW5       30.12R
STARKVILLE     FAIR      37  37 100 CALM      30.13S
TUPELO         CLEAR     43  40  89 CALM      30.14R
$$

MSZ040-058-301200-
CENTRAL MISSISSIPPI

CITY           SKY/WX    TMP DP  RH WIND       PRES   REMARKS
JACKSON INTL   CLEAR     43  41  93 CALM      30.13R
JACKSON HAWKNS CLEAR     46  42  86 CALM      30.13S
MERIDIAN KEY   CLEAR     39  37  92 CALM      30.13R
MERIDIAN NAS   CLEAR     40  38  93 CALM      30.13R
RAYMOND        FAIR      41  36  81 CALM      30.14R
VICKSBURG      CLEAR     42  40  92 CALM      30.14R
$$

MSZ059>079-301200-
SOUTH MISSISSIPPI

CITY           SKY/WX    TMP DP  RH WIND       PRES   REMARKS
BROOKHAVEN     FAIR      45  43  93 CALM      30.13S
COLUMBIA         N/A     41  41 100 MISG      30.10S
HATTIESBURG    CLEAR     47  45  93 NW3       30.11S
MCCOMB         CLEAR     52  43  71 N5        30.11R
NATCHEZ        CLEAR     45  39  81 CALM      30.13S
PINE BELT      CLEAR     46  39  76 N5        30.11S
$$

MSZ080>082-301200-
COASTAL MISSISSIPPI

CITY           SKY/WX    TMP DP  RH WIND       PRES   REMARKS
BILOXI         CLEAR     58  48  69 N9        30.06S
PASCAGOULA     CLEAR     55  51  86 N6        30.06R
GULFPORT       CLEAR     57  45  64 N7        30.06R
$$



USA.gov is the U.S. government's official web portal to all federal, state and local government web resources and services.